Location: Nairn
(57.5833°N, 3.8667°W)
Time: 17:26:41
(UTC+00:00)

S-56A Canister/Altair - Pass Details

Date: 05 December 2020
Orbit: 633 x 2499 km, 38.9° (Epoch: 19 January)

Event Time Altitude Azimuth Distance (km) Brightness Sun altitude
Rises 20:03:41 0° 247° (WSW) 5,789 12.7 -34.4°
Reaches altitude 10° 20:08:36 10° 237° (WSW) 4,518 11.9 -35.1°
Maximum altitude 20:17:27 25° 189° (S) 2,860 10.3 -36.2°
Enters shadow 20:17:49 25° 186° (S) 2,837 10.2 -36.3°
Drops below altitude 10° 20:24:10 10° 138° (SE) 3,339 - -37.1°
Sets 20:27:11 0° 125° (SE) 4,042 - -37.5°
